Change the Weather History Date:

Tuesday, November 23, 2010

  Actual Average Record
Temperature  
Mean Temperature 76 °F 58 °F  
Max Temperature 84 °F 70 °F 85 °F (1955)
Min Temperature 68 °F 47 °F 28 °F (1956)
Degree Days  
Heating Degree Days 0 8  
Month to date heating degree days 132 128  
Since 1 July heating degree days 158 174  
Cooling Degree Days 11 1  
Month to date cooling degree days 27 42  
Year to date cooling degree days 2980 2792  
Growing Degree Days 25 (Base 50)    
Moisture  
Dew Point 69 °F    
Average Humidity 82    
Maximum Humidity 100    
Minimum Humidity 63    
Precipitation  
Precipitation 0.00 in 0.13 in 1.05 in (1918)
Month to date precipitation 3.08 3.11  
Year to date precipitation 48.77 54.06  
Snow  
Snow 0.00 in - - ()
Month to date snowfall 0.0  
Since 1 July snowfall 0.0  
Since 1 September snowfall 0.0  
Snow Depth 0.00 in    
Sea Level Pressure  
Sea Level Pressure 30.07 in    
Wind  
Wind Speed 7 mph (South)    
Max Wind Speed 15 mph    
Max Gust Speed 21 mph    
Visibility 9 miles    
Events      
T = Trace of Precipitation, MM = Missing Value Source: NWS Daily Summary

Daily Weather History Graph

Daily Weather History Graph

Search for Another Location

Airport or City:

Trip Planner

Search our weather history database for the weather conditions in past years. The results will help you decide how hot, cold, wet, or windy it might be!

Date:

Astronomy

Nov. 23, 2010 Rise Set
Actual Time 6:37 AM CST 5:04 PM CST
Civil Twilight 6:11 AM CST 5:30 PM CST
Nautical Twilight 5:42 AM CST 5:59 PM CST
Astronomical Twilight 5:13 AM CST 6:28 PM CST
Moon 6:52 PM CST (11/23) 8:28 AM CST (11/23)
Length of Visible Light 11h 18m
Length of Day
10h 27m
Waning Gibbous, 96% of the Moon is Illuminated
Nov 23
Waning Gibbous
Nov 28
Last Quarter
Dec 5
New
Dec 13
First Quarter
Dec 21
Full

Hourly Weather History & Observations

Time (CST) Temp. Heat Index Dew Point Humidity Pressure Visibility Wind Dir Wind Speed Gust Speed Precip Events Conditions
12:53 AM 70.0 °F - 70.0 °F 100% 30.06 in 9.0 mi South 9.2 mph - N/A   Overcast
1:38 AM 69.8 °F - 69.8 °F 100% 30.07 in 8.0 mi South 5.8 mph - N/A   Overcast
1:53 AM 70.0 °F - 70.0 °F 100% 30.07 in 8.0 mi SSE 4.6 mph - N/A   Overcast
2:10 AM 69.8 °F - 69.8 °F 100% 30.07 in 8.0 mi SSE 4.6 mph - N/A   Overcast
2:53 AM 69.1 °F - 69.1 °F 100% 30.07 in 7.0 mi SSE 3.5 mph - N/A   Overcast
3:12 AM 69.8 °F - 69.8 °F 100% 30.08 in 7.0 mi Calm Calm - N/A   Overcast
3:53 AM 69.1 °F - 69.1 °F 100% 30.07 in 7.0 mi ESE 4.6 mph - 0.00 in   Overcast
4:03 AM 69.8 °F - 69.8 °F 100% 30.07 in 7.0 mi SSE 5.8 mph - N/A   Overcast
4:29 AM 69.8 °F - 69.8 °F 100% 30.07 in 6.0 mi South 4.6 mph - N/A   Overcast
4:53 AM 69.1 °F - 69.1 °F 100% 30.07 in 6.0 mi South 4.6 mph - N/A   Overcast
5:53 AM 70.0 °F - 70.0 °F 100% 30.08 in 7.0 mi South 5.8 mph - N/A   Overcast
6:53 AM 70.0 °F - 70.0 °F 100% 30.09 in 6.0 mi South 6.9 mph - N/A   Overcast
7:53 AM 71.1 °F - 71.1 °F 100% 30.09 in 8.0 mi South 9.2 mph - N/A   Overcast
8:53 AM 73.0 °F - 71.1 °F 93% 30.11 in 10.0 mi South 9.2 mph - N/A   Overcast
9:53 AM 75.9 °F - 71.1 °F 85% 30.11 in 10.0 mi South 13.8 mph - N/A   Overcast
10:00 AM 75.2 °F - 71.6 °F 89% 30.12 in 10.0 mi South 10.4 mph - N/A   Overcast
10:17 AM 77.0 °F - 71.6 °F 83% 30.11 in 10.0 mi SSW 11.5 mph 17.3 mph N/A   Overcast
10:53 AM 75.0 °F - 72.0 °F 90% 30.11 in 10.0 mi South 6.9 mph - 0.01 in   Overcast
11:53 AM 78.1 °F - 70.0 °F 76% 30.08 in 10.0 mi WSW 4.6 mph - N/A   Mostly Cloudy
12:02 PM 78.8 °F - 69.8 °F 74% 30.07 in 10.0 mi SSW 9.2 mph - N/A   Mostly Cloudy
12:53 PM 81.0 °F 84.1 °F 69.1 °F 67% 30.06 in 10.0 mi SW 9.2 mph - N/A   Scattered Clouds
1:53 PM 82.0 °F 84.9 °F 68.0 °F 62% 30.03 in 10.0 mi SW 5.8 mph - N/A   Scattered Clouds
2:53 PM 82.9 °F 85.8 °F 68.0 °F 60% 30.01 in 10.0 mi SSW 10.4 mph - N/A   Mostly Cloudy
3:53 PM 80.1 °F 82.7 °F 68.0 °F 67% 30.01 in 10.0 mi South 12.7 mph - N/A   Scattered Clouds
4:53 PM 78.1 °F - 68.0 °F 71% 30.02 in 10.0 mi SSW 10.4 mph - N/A   Overcast
5:53 PM 75.0 °F - 68.0 °F 79% 30.03 in 10.0 mi SSW 8.1 mph - N/A   Mostly Cloudy
6:06 PM 73.4 °F - 68.0 °F 83% 30.03 in 10.0 mi SSW 5.8 mph - N/A   Mostly Cloudy
6:21 PM 73.4 °F - 68.0 °F 83% 30.04 in 10.0 mi SSW 6.9 mph - N/A   Scattered Clouds
6:53 PM 73.9 °F - 69.1 °F 85% 30.05 in 10.0 mi SSW 10.4 mph - N/A   Partly Cloudy
7:53 PM 71.1 °F - 68.0 °F 90% 30.05 in 10.0 mi SSW 5.8 mph - N/A   Clear
8:53 PM 70.0 °F - 68.0 °F 93% 30.06 in 10.0 mi South 4.6 mph - N/A   Clear
9:53 PM 70.0 °F - 69.1 °F 97% 30.06 in 10.0 mi SSE 5.8 mph - N/A   Clear
10:53 PM 68.0 °F - 68.0 °F 100% 30.06 in 10.0 mi SSE 3.5 mph - N/A   Clear
11:14 PM 68.0 °F - 68.0 °F 100% 30.06 in 9.0 mi SSE 3.5 mph - N/A   Scattered Clouds
11:23 PM 69.8 °F - 69.8 °F 100% 30.06 in 8.0 mi South 3.5 mph - N/A   Mostly Cloudy
11:46 PM 69.8 °F - 69.8 °F 100% 30.06 in 6.0 mi South 4.6 mph - N/A   Overcast
11:53 PM 69.1 °F - 69.1 °F 100% 30.06 in 6.0 mi South 6.9 mph - N/A   Overcast